STARLINK-2624

operational
NORAD ID: 48358 Int'l Des: 2021-038 Owner: SPXS Country: US Constellation: starlink
LEOCIRCULARSTARLINK_TYPE

About STARLINK-2624

Description loading...

Live Position

Loading 3D Globe...

Upcoming Passes

Altitude History

Altitude vs Time

uPlot chart will show altitude changes over time

Two-Line Element Set

1 48358U 21038F 25250.99708920 .00001921 00000-0 14781-3 0 9997
2 48358 53.0549 101.7582 0001327 89.0862 271.0279 15.06408012239487
Epoch: Sep 7, 2025 • Age: 16 hours

Current Status

Altitude 566.5 km
Velocity 7.58 km/s
Sub-Earth Point -53.04°S, 155.16°E
Launch Date May 4, 2021
Age 4.3 years
Type internet

Technical Details

Classification Payload
Mass 260.00 kg
Dry Mass 248.00 kg
Total Mass 260.00 kg
Length 0.20 m
Diameter 2.80 m
Span 9.00 m
Shape Box + pan
Manufacturer SPXS
Bus Type Starlink
Phase Status In Orbit
Owner/State SPXS/US

Large Constellations

Loading constellations...